Location: Newark
(7.0858°N, 171.3717°E)
Time: 06:52:23
(UTC+00:00)

Courier 1B - Pass Details

Date: 03 December 2020
Orbit: 962 x 1209 km, 28.3° (Epoch: 20 January)

Event Time Altitude Azimuth Distance (km) Brightness Sun altitude
Rises 13:59:32 0° 312° (NW) 3,826 - -62.6°
Reaches altitude 10° 14:02:30 10° 321° (NW) 2,912 - -62.0°
Maximum altitude 14:08:54 34° 24° (NNE) 1,762 - -60.7°
Drops below altitude 10° 14:15:38 10° 87° (E) 3,071 - -59.3°
Exits shadow 14:17:26 - 93° (E) 3,625 10.8 -58.9°
Sets 14:18:49 0° 96° (E) 4,062 11.1 -58.6°
